Вернуться в каталог

STARLINK-37334

АктивенСвязьVLEO
NORAD 68700·PAYLOAD·🇺🇸 United States

Запущен Apr 14, 2026 с Cape Canaveral Space Force Station

Loading…

Ближайшие Пролёты (ближайшие 24 часа)

TLE

СвежийSource: CelesTrak SupGP

Эпоха: Sep 14, 2026, 22:57 UTC

1 68700C 26081B   26257.95673611  .00019278  00000+0  56943-3 0  2571
2 68700  53.1575 231.9520 0001457 101.4805 234.1777 15.34389465    17

Отслеживайте STARLINK-37334 в реальном времени с AllMySat

Download on the App Store